Mehtap Bayraktar — TCPB — position and weather

sailwx.info

Track history (hours):
 
Tides and Currents Weather Stations Pressure Air Temp Water Temp Dewpoint Dewpoint Depression Visibility Wind Speed Wind Dir Waves Ship Positions

Mehtap Bayraktar

Last reported at 2014-Oct-25 17:26 UTC. Time now 2014-Oct-25 17:38 UTC.
Position N 36°48' E 003°05'.

Length 114 m; draft 6 m.

Type: Cargo ship. MMSI: 271000578.

Date/timePositionNaut miles runAvg speedWind from/ knotsBaromVisibWave heightAir tempDewpointWater temp
2014-Oct-25 17:26N 36°48' E 003°05'0 0.0
2014-Oct-25 16:25N 36°48' E 003°05'0 0.0
2014-Oct-25 14:19N 36°48' E 003°05'0 0.0
2014-Oct-25 13:31N 36°48' E 003°05'0 0.0
2014-Oct-25 12:25N 36°48' E 003°05'0 0.0
2014-Oct-25 11:19N 36°48' E 003°05'0 0.0
2014-Oct-25 10:31N 36°48' E 003°05'0 0.0
2014-Oct-25 09:31N 36°48' E 003°05'0 0.0
2014-Oct-25 08:26N 36°48' E 003°05'0 0.0
2014-Oct-25 07:32N 36°48' E 003°05'0 0.0
2014-Oct-25 06:26N 36°48' E 003°05'0 0.0
2014-Oct-25 05:31N 36°48' E 003°05'0 0.0
2014-Oct-25 02:31N 36°48' E 003°05'0 0.0
2014-Oct-25 01:31N 36°48' E 003°05'0 0.0
2014-Oct-24 22:32N 36°48' E 003°05'0 0.0
2014-Oct-24 20:20N 36°48' E 003°05'0 0.0
2014-Oct-24 19:31N 36°48' E 003°05'0 0.0
2014-Oct-24 18:25N 36°48' E 003°05'0 0.0
2014-Oct-24 17:31N 36°48' E 003°05'0 0.0
2014-Oct-24 16:31N 36°48' E 003°05'0 0.0
2014-Oct-24 08:07N 36°48' E 003°05'0 0.1
2014-Oct-24 07:19N 36°48' E 003°05'0 0.0
2014-Oct-24 06:31N 36°48' E 003°05'  
2014-Oct-21 19:32N 38°41' E 000°60'1412.3
2014-Oct-21 18:22N 38°28' E 001°07'1012.6
2014-Oct-21 17:33N 38°21' E 001°16'1312.8
2014-Oct-21 16:32N 38°12' E 001°28'1212.7
2014-Oct-21 15:33N 38°03' E 001°39'1312.9
2014-Oct-21 14:33N 37°54' E 001°51'1513.3
2014-Oct-21 13:24N 37°42' E 002°04'1313.2
2014-Oct-21 12:25N 37°33' E 002°15'1415.5
2014-Oct-21 11:32N 37°23' E 002°27'1311.9
2014-Oct-21 10:26N 37°14' E 002°39'1213.7
2014-Oct-21 09:32N 37°05' E 002°49'1313.7
2014-Oct-21 08:33N 36°55' E 003°01'  
2014-Oct-18 17:06N 37°59' E 002°36'712.5
2014-Oct-18 16:33N 38°05' E 002°33'1212.3
2014-Oct-18 15:33N 38°17' E 002°28'1313.0
2014-Oct-18 14:33N 38°29' E 002°23'1312.6
2014-Oct-18 13:33N 38°41' E 002°18'1313.2
2014-Oct-18 12:33N 38°54' E 002°13'1313.3
2014-Oct-18 11:33N 39°06' E 002°08'1313.0
2014-Oct-18 10:33N 39°19' E 002°02'1513.3
2014-Oct-18 09:26N 39°33' E 001°55'1312.1
2014-Oct-18 08:20N 39°46' E 001°57'912.0
2014-Oct-18 07:33N 39°55' E 001°58'1211.9
2014-Oct-18 06:33N 40°07' E 002°00'1212.3
2014-Oct-18 05:33N 40°19' E 002°02'1212.4
2014-Oct-18 04:33N 40°32' E 002°04'1312.6
2014-Oct-18 03:33N 40°44' E 002°05'1313.1
2014-Oct-18 02:33N 40°57' E 002°07'1313.4
2014-Oct-18 01:33N 41°10' E 002°09'10 8.3
2014-Oct-18 00:18N 41°21' E 002°10'0 0.0
2014-Oct-17 23:30N 41°21' E 002°10'0 0.0
2014-Oct-17 22:30N 41°21' E 002°10'0 0.0
2014-Oct-17 21:24N 41°21' E 002°10'0 0.0
2014-Oct-17 20:33N 41°21' E 002°10'0 0.0
2014-Oct-17 19:30N 41°21' E 002°10'3 3.6
2014-Oct-17 18:33N 41°17' E 002°11'4 3.6
2014-Oct-17 17:33N 41°14' E 002°14'1 0.6
2014-Oct-17 16:33N 41°14' E 002°14'1 0.6
2014-Oct-17 15:33N 41°13' E 002°14'0 0.5
2014-Oct-17 14:33N 41°13' E 002°15'1110.8
2014-Oct-17 13:33N 41°05' E 002°24'1212.2
2014-Oct-17 12:33N 40°55' E 002°34'1212.1
2014-Oct-17 11:33N 40°46' E 002°44'1211.7
2014-Oct-17 10:33N 40°36' E 002°53'1212.2
2014-Oct-17 09:33N 40°26' E 003°03'1412.5
2014-Oct-17 08:27N 40°16' E 003°14'2211.5
2014-Oct-17 06:32N 39°58' E 003°31'1612.0
2014-Oct-17 05:13N 39°45' E 003°42'812.0
2014-Oct-17 04:32N 39°37' E 003°46'4112.2
2014-Oct-17 01:09N 38°59' E 004°07'  
Track history (hours):
 
Tides and Currents Weather Stations Pressure Air Temp Water Temp Dewpoint Dewpoint Depression Visibility Wind Speed Wind Dir Waves Ship Positions

Mehtap Bayraktar

Last reported at 2014-Oct-25 17:26 UTC. Time now 2014-Oct-25 17:38 UTC.
Position N 36°48' E 003°05'.

Length 114 m; draft 6 m.

Type: Cargo ship. MMSI: 271000578.

Date/timePositionNaut miles runAvg speedWind from/ knotsBaromVisibWave heightAir tempDewpointWater temp
2014-Oct-25 17:26N 36°48' E 003°05'0 0.0
2014-Oct-25 16:25N 36°48' E 003°05'0 0.0
2014-Oct-25 14:19N 36°48' E 003°05'0 0.0
2014-Oct-25 13:31N 36°48' E 003°05'0 0.0
2014-Oct-25 12:25N 36°48' E 003°05'0 0.0
2014-Oct-25 11:19N 36°48' E 003°05'0 0.0
2014-Oct-25 10:31N 36°48' E 003°05'0 0.0
2014-Oct-25 09:31N 36°48' E 003°05'0 0.0
2014-Oct-25 08:26N 36°48' E 003°05'0 0.0
2014-Oct-25 07:32N 36°48' E 003°05'0 0.0
2014-Oct-25 06:26N 36°48' E 003°05'0 0.0
2014-Oct-25 05:31N 36°48' E 003°05'0 0.0
2014-Oct-25 02:31N 36°48' E 003°05'0 0.0
2014-Oct-25 01:31N 36°48' E 003°05'0 0.0
2014-Oct-24 22:32N 36°48' E 003°05'0 0.0
2014-Oct-24 20:20N 36°48' E 003°05'0 0.0
2014-Oct-24 19:31N 36°48' E 003°05'0 0.0
2014-Oct-24 18:25N 36°48' E 003°05'0 0.0
2014-Oct-24 17:31N 36°48' E 003°05'0 0.0
2014-Oct-24 16:31N 36°48' E 003°05'0 0.0
2014-Oct-24 08:07N 36°48' E 003°05'0 0.1
2014-Oct-24 07:19N 36°48' E 003°05'0 0.0
2014-Oct-24 06:31N 36°48' E 003°05'  
2014-Oct-21 19:32N 38°41' E 000°60'1412.3
2014-Oct-21 18:22N 38°28' E 001°07'1012.6
2014-Oct-21 17:33N 38°21' E 001°16'1312.8
2014-Oct-21 16:32N 38°12' E 001°28'1212.7
2014-Oct-21 15:33N 38°03' E 001°39'1312.9
2014-Oct-21 14:33N 37°54' E 001°51'1513.3
2014-Oct-21 13:24N 37°42' E 002°04'1313.2
2014-Oct-21 12:25N 37°33' E 002°15'1415.5
2014-Oct-21 11:32N 37°23' E 002°27'1311.9
2014-Oct-21 10:26N 37°14' E 002°39'1213.7
2014-Oct-21 09:32N 37°05' E 002°49'1313.7
2014-Oct-21 08:33N 36°55' E 003°01'  
2014-Oct-18 17:06N 37°59' E 002°36'712.5
2014-Oct-18 16:33N 38°05' E 002°33'1212.3
2014-Oct-18 15:33N 38°17' E 002°28'1313.0
2014-Oct-18 14:33N 38°29' E 002°23'1312.6
2014-Oct-18 13:33N 38°41' E 002°18'1313.2
2014-Oct-18 12:33N 38°54' E 002°13'1313.3
2014-Oct-18 11:33N 39°06' E 002°08'1313.0
2014-Oct-18 10:33N 39°19' E 002°02'1513.3
2014-Oct-18 09:26N 39°33' E 001°55'1312.1
2014-Oct-18 08:20N 39°46' E 001°57'912.0
2014-Oct-18 07:33N 39°55' E 001°58'1211.9
2014-Oct-18 06:33N 40°07' E 002°00'1212.3
2014-Oct-18 05:33N 40°19' E 002°02'1212.4
2014-Oct-18 04:33N 40°32' E 002°04'1312.6
2014-Oct-18 03:33N 40°44' E 002°05'1313.1
2014-Oct-18 02:33N 40°57' E 002°07'1313.4
2014-Oct-18 01:33N 41°10' E 002°09'10 8.3
2014-Oct-18 00:18N 41°21' E 002°10'0 0.0
2014-Oct-17 23:30N 41°21' E 002°10'0 0.0
2014-Oct-17 22:30N 41°21' E 002°10'0 0.0
2014-Oct-17 21:24N 41°21' E 002°10'0 0.0
2014-Oct-17 20:33N 41°21' E 002°10'0 0.0
2014-Oct-17 19:30N 41°21' E 002°10'3 3.6
2014-Oct-17 18:33N 41°17' E 002°11'4 3.6
2014-Oct-17 17:33N 41°14' E 002°14'1 0.6
2014-Oct-17 16:33N 41°14' E 002°14'1 0.6
2014-Oct-17 15:33N 41°13' E 002°14'0 0.5
2014-Oct-17 14:33N 41°13' E 002°15'1110.8
2014-Oct-17 13:33N 41°05' E 002°24'1212.2
2014-Oct-17 12:33N 40°55' E 002°34'1212.1
2014-Oct-17 11:33N 40°46' E 002°44'1211.7
2014-Oct-17 10:33N 40°36' E 002°53'1212.2
2014-Oct-17 09:33N 40°26' E 003°03'1412.5
2014-Oct-17 08:27N 40°16' E 003°14'2211.5
2014-Oct-17 06:32N 39°58' E 003°31'1612.0
2014-Oct-17 05:13N 39°45' E 003°42'812.0
2014-Oct-17 04:32N 39°37' E 003°46'4112.2
2014-Oct-17 01:09N 38°59' E 004°07'  

Dump ship's entire track history